Time,TemperatureF,DewpointF,PressureIn,WindDirection,WindDirectionDegrees,WindSpeedMPH,WindSpeedGustMPH,Humidity,HourlyPrecipIn,Conditions,Clouds,dailyrainin,SoftwareType,DateUTC
2013-12-31 00:12:00,14.0,5.0,30.18,WNW,300,1.0,3.0,68,0.00,,,0.00,,2013-12-31 05:12:00,
2013-12-31 00:22:00,13.0,4.0,30.18,WNW,291,2.0,4.0,67,0.00,,,0.00,,2013-12-31 05:22:00,
2013-12-31 00:42:00,13.0,4.0,30.17,WNW,301,1.0,5.0,66,0.00,,,0.00,,2013-12-31 05:42:00,
2013-12-31 00:53:00,12.0,4.0,30.17,NW,318,0.0,3.0,68,0.00,,,0.00,,2013-12-31 05:53:00,
2013-12-31 01:12:00,12.0,4.0,30.17,WNW,293,1.0,3.0,69,0.00,,,0.00,,2013-12-31 06:12:00,
2013-12-31 01:23:00,12.0,3.0,30.16,WNW,288,3.0,7.0,67,0.00,,,0.00,,2013-12-31 06:23:00,
2013-12-31 01:43:00,12.0,1.0,30.18,West,267,2.0,8.0,61,0.00,,,0.00,,2013-12-31 06:43:00,
2013-12-31 01:52:00,11.0,0.0,30.18,WNW,293,1.0,3.0,61,0.00,,,0.00,,2013-12-31 06:52:00,
2013-12-31 02:12:00,11.0,0.0,30.19,WNW,284,0.0,3.0,60,0.00,,,0.00,,2013-12-31 07:12:00,
2013-12-31 02:23:00,11.0,0.0,30.18,WNW,290,2.0,4.0,61,0.00,,,0.00,,2013-12-31 07:23:00,
2013-12-31 02:42:00,11.0,0.0,30.18,West,272,0.0,4.0,61,0.00,,,0.00,,2013-12-31 07:42:00,
2013-12-31 02:52:00,10.0,0.0,30.19,WNW,290,1.0,2.0,63,0.00,,,0.00,,2013-12-31 07:52:00,
2013-12-31 03:11:00,10.0,0.0,30.18,WNW,283,1.0,3.0,63,0.00,,,0.00,,2013-12-31 08:11:00,
2013-12-31 03:22:00,10.0,1.0,30.17,WNW,285,0.0,3.0,66,0.00,,,0.00,,2013-12-31 08:22:00,
2013-12-31 03:42:00,10.0,1.0,30.16,WNW,286,1.0,3.0,66,0.00,,,0.00,,2013-12-31 08:42:00,
2013-12-31 03:52:00,10.0,1.0,30.17,WNW,291,0.0,1.0,66,0.00,,,0.00,,2013-12-31 08:52:00,
2013-12-31 04:22:00,10.0,0.0,30.17,WNW,285,1.0,2.0,63,0.00,,,0.00,,2013-12-31 09:22:00,
2013-12-31 04:43:00,9.0,-2.0,30.17,West,276,1.0,3.0,61,0.00,,,0.00,,2013-12-31 09:43:00,
2013-12-31 04:53:00,9.0,-1.0,30.18,West,280,0.0,2.0,62,0.00,,,0.00,,2013-12-31 09:53:00,
2013-12-31 05:13:00,9.0,-1.0,30.17,West,280,0.0,0.0,63,0.00,,,0.00,,2013-12-31 10:13:00,
2013-12-31 05:23:00,8.0,-1.0,30.17,West,280,0.0,0.0,67,0.00,,,0.00,,2013-12-31 10:23:00,
2013-12-31 05:43:00,7.0,-1.0,30.17,West,280,0.0,0.0,70,0.00,,,0.00,,2013-12-31 10:43:00,
2013-12-31 05:53:00,7.0,0.0,30.17,West,280,0.0,1.0,72,0.00,,,0.00,,2013-12-31 10:53:00,
2013-12-31 06:12:00,7.0,0.0,30.16,West,280,0.0,0.0,72,0.00,,,0.00,,2013-12-31 11:12:00,
2013-12-31 06:22:00,6.0,0.0,30.17,West,280,0.0,0.0,76,0.00,,,0.00,,2013-12-31 11:22:00,
2013-12-31 06:43:00,6.0,0.0,30.17,West,280,0.0,0.0,76,0.00,,,0.00,,2013-12-31 11:43:00,
2013-12-31 06:53:00,6.0,0.0,30.16,West,280,0.0,0.0,76,0.00,,,0.00,,2013-12-31 11:53:00,
2013-12-31 07:11:00,7.0,0.0,30.17,West,280,0.0,1.0,74,0.00,,,0.00,,2013-12-31 12:11:00,
2013-12-31 07:22:00,8.0,1.0,30.17,WNW,299,1.0,1.0,71,0.00,,,0.00,,2013-12-31 12:22:00,
2013-12-31 07:42:00,8.0,0.0,30.17,WNW,295,0.0,1.0,69,0.00,,,0.00,,2013-12-31 12:42:00,
2013-12-31 07:52:00,8.0,-1.0,30.15,WNW,295,0.0,1.0,66,0.00,,,0.00,,2013-12-31 12:52:00,
2013-12-31 08:12:00,8.0,-1.0,30.16,WNW,295,0.0,1.0,67,0.00,,,0.00,,2013-12-31 13:12:00,
2013-12-31 08:22:00,8.0,-1.0,30.16,WNW,293,1.0,2.0,67,0.00,,,0.00,,2013-12-31 13:22:00,
2013-12-31 08:42:00,9.0,0.0,30.17,WNW,298,1.0,4.0,65,0.00,,,0.00,,2013-12-31 13:42:00,
2013-12-31 08:52:00,9.0,-2.0,30.15,West,280,1.0,3.0,61,0.00,,,0.00,,2013-12-31 13:52:00,
2013-12-31 09:11:00,9.0,-2.0,30.15,WNW,285,0.0,2.0,59,0.00,,,0.00,,2013-12-31 14:11:00,
2013-12-31 09:23:00,10.0,-2.0,30.16,WNW,301,0.0,3.0,58,0.00,,,0.00,,2013-12-31 14:23:00,
2013-12-31 09:42:00,11.0,-1.0,30.15,WNW,301,0.0,1.0,58,0.00,,,0.00,,2013-12-31 14:42:00,
2013-12-31 09:53:00,11.0,-1.0,30.16,WNW,298,1.0,2.0,57,0.00,,,0.00,,2013-12-31 14:53:00,
2013-12-31 10:11:00,12.0,-1.0,30.15,WNW,290,1.0,3.0,56,0.00,,,0.00,,2013-12-31 15:11:00,
2013-12-31 10:22:00,13.0,0.0,30.15,WNW,295,0.0,3.0,56,0.00,,,0.00,,2013-12-31 15:22:00,
2013-12-31 10:43:00,14.0,1.0,30.15,SE,133,0.0,6.0,55,0.00,,,0.00,,2013-12-31 15:43:00,
2013-12-31 10:53:00,15.0,2.0,30.13,NNW,328,1.0,5.0,55,0.00,,,0.00,,2013-12-31 15:53:00,
2013-12-31 11:13:00,15.0,1.0,30.12,ESE,104,1.0,3.0,53,0.00,,,0.00,,2013-12-31 16:13:00,
2013-12-31 11:23:00,16.0,2.0,30.11,NW,310,1.0,3.0,53,0.00,,,0.00,,2013-12-31 16:23:00,
2013-12-31 11:42:00,16.0,2.0,30.11,WNW,294,0.0,5.0,52,0.00,,,0.00,,2013-12-31 16:42:00,
2013-12-31 11:53:00,17.0,2.0,30.10,WNW,302,1.0,4.0,52,0.00,,,0.00,,2013-12-31 16:53:00,
2013-12-31 12:12:00,18.0,3.0,30.09,SSW,203,1.0,4.0,52,0.00,,,0.00,,2013-12-31 17:12:00,
2013-12-31 12:22:00,18.0,3.0,30.08,WSW,253,2.0,5.0,50,0.00,,,0.00,,2013-12-31 17:22:00,
2013-12-31 12:42:00,19.0,4.0,30.08,West,277,2.0,4.0,51,0.00,,,0.00,,2013-12-31 17:42:00,
2013-12-31 12:53:00,19.0,3.0,30.07,WNW,289,1.0,4.0,49,0.00,,,0.00,,2013-12-31 17:53:00,
2013-12-31 13:12:00,19.0,3.0,30.07,SE,136,1.0,6.0,49,0.00,,,0.00,,2013-12-31 18:12:00,
2013-12-31 13:22:00,20.0,4.0,30.05,WNW,292,2.0,3.0,48,0.00,,,0.00,,2013-12-31 18:22:00,
2013-12-31 13:42:00,20.0,4.0,30.05,WNW,290,0.0,3.0,48,0.00,,,0.00,,2013-12-31 18:42:00,
2013-12-31 13:53:00,21.0,4.0,30.04,ESE,117,0.0,4.0,47,0.00,,,0.00,,2013-12-31 18:53:00,
2013-12-31 14:22:00,22.0,5.0,30.04,West,280,0.0,3.0,48,0.00,,,0.00,,2013-12-31 19:22:00,
2013-12-31 14:43:00,22.0,5.0,30.04,ESE,111,1.0,5.0,47,0.00,,,0.00,,2013-12-31 19:43:00,
2013-12-31 14:53:00,23.0,7.0,30.04,ESE,110,0.0,3.0,49,0.00,,,0.00,,2013-12-31 19:53:00,
2013-12-31 15:11:00,23.0,6.0,30.04,WNW,300,1.0,5.0,48,0.00,,,0.00,,2013-12-31 20:11:00,
2013-12-31 15:22:00,23.0,6.0,30.05,ESE,122,0.0,2.0,48,0.00,,,0.00,,2013-12-31 20:22:00,
2013-12-31 15:42:00,22.0,6.0,30.05,WNW,287,0.0,2.0,49,0.00,,,0.00,,2013-12-31 20:42:00,
2013-12-31 15:53:00,21.0,6.0,30.06,WNW,287,0.0,1.0,52,0.00,,,0.00,,2013-12-31 20:53:00,
2013-12-31 16:11:00,21.0,6.0,30.07,WNW,287,0.0,1.0,52,0.00,,,0.00,,2013-12-31 21:11:00,
2013-12-31 16:22:00,21.0,7.0,30.07,WNW,287,0.0,0.0,53,0.00,,,0.00,,2013-12-31 21:22:00,
2013-12-31 16:43:00,21.0,8.0,30.07,WNW,287,0.0,0.0,57,0.00,,,0.00,,2013-12-31 21:43:00,
2013-12-31 16:53:00,21.0,9.0,30.08,WNW,287,0.0,1.0,58,0.00,,,0.00,,2013-12-31 21:53:00,
2013-12-31 17:13:00,20.0,7.0,30.08,WNW,288,0.0,0.0,57,0.00,,,0.00,,2013-12-31 22:13:00,
2013-12-31 17:23:00,19.0,9.0,30.09,WNW,287,0.0,0.0,64,0.00,,,0.00,,2013-12-31 22:23:00,
2013-12-31 17:53:00,17.0,9.0,30.09,WNW,287,0.0,0.0,69,0.00,,,0.00,,2013-12-31 22:53:00,
2013-12-31 18:12:00,16.0,9.0,30.09,WNW,287,0.0,1.0,72,0.00,,,0.00,,2013-12-31 23:12:00,
2013-12-31 18:22:00,16.0,9.0,30.10,WNW,287,0.0,0.0,73,0.00,,,0.00,,2013-12-31 23:22:00,
2013-12-31 18:43:00,16.0,9.0,30.10,WNW,286,0.0,1.0,75,0.00,,,0.00,,2013-12-31 23:43:00,
2013-12-31 18:53:00,15.0,10.0,30.10,WNW,286,0.0,0.0,79,0.00,,,0.00,,2013-12-31 23:53:00,
2013-12-31 19:12:00,14.0,9.0,30.09,WNW,286,0.0,0.0,80,0.00,,,0.00,,2014-01-01 00:12:00,
2013-12-31 19:22:00,13.0,9.0,30.09,WNW,286,0.0,0.0,83,0.00,,,0.00,,2014-01-01 00:22:00,
2013-12-31 19:42:00,13.0,9.0,30.09,WNW,286,0.0,0.0,83,0.00,,,0.00,,2014-01-01 00:42:00,
2013-12-31 19:52:00,12.0,8.0,30.11,WNW,287,0.0,0.0,85,0.00,,,0.00,,2014-01-01 00:52:00,
2013-12-31 20:11:00,12.0,8.0,30.11,WNW,287,0.0,0.0,85,0.00,,,0.00,,2014-01-01 01:11:00,
2013-12-31 20:22:00,12.0,9.0,30.11,WNW,287,0.0,0.0,86,0.00,,,0.00,,2014-01-01 01:22:00,
2013-12-31 20:42:00,13.0,10.0,30.11,WNW,286,1.0,1.0,89,0.00,,,0.00,,2014-01-01 01:42:00,
2013-12-31 20:52:00,15.0,11.0,30.12,WNW,290,0.0,1.0,84,0.00,,,0.00,,2014-01-01 01:52:00,
2013-12-31 21:22:00,15.0,11.0,30.12,WNW,301,0.0,1.0,85,0.00,,,0.00,,2014-01-01 02:22:00,
2013-12-31 21:42:00,15.0,12.0,30.12,ENE,63,0.0,1.0,86,0.00,,,0.00,,2014-01-01 02:42:00,
2013-12-31 21:52:00,17.0,13.0,30.12,NNW,328,0.0,3.0,85,0.00,,,0.00,,2014-01-01 02:52:00,
2013-12-31 22:12:00,17.0,13.0,30.12,SE,131,1.0,3.0,83,0.00,,,0.00,,2014-01-01 03:12:00,
2013-12-31 22:22:00,19.0,13.0,30.13,WNW,298,1.0,10.0,77,0.00,,,0.00,,2014-01-01 03:22:00,
2013-12-31 22:44:00,19.0,12.0,30.13,NW,307,2.0,6.0,75,0.00,,,0.00,,2014-01-01 03:44:00,
2013-12-31 22:53:00,20.0,12.0,30.14,WNW,303,3.0,7.0,72,0.00,,,0.00,,2014-01-01 03:53:00,
2013-12-31 23:03:00,20.0,12.0,30.14,WNW,303,3.0,7.0,72,0.00,,,0.00,,2014-01-01 04:03:00,
2013-12-31 23:13:00,20.0,12.0,30.14,WNW,303,3.0,7.0,72,0.00,,,0.00,,2014-01-01 04:13:00,
2013-12-31 23:23:00,20.0,11.0,30.16,WNW,291,2.0,9.0,66,0.00,,,0.00,,2014-01-01 04:23:00,
2013-12-31 23:43:00,20.0,11.0,30.16,East,89,1.0,5.0,66,0.00,,,0.00,,2014-01-01 04:43:00,
2013-12-31 23:53:00,19.0,10.0,30.17,WNW,303,1.0,6.0,67,0.00,,,0.00,,2014-01-01 04:53:00,